Regional Weather Roundup
Issued by NWS Wakefield, VA

Home | Current Version | Previous Version | Text Only | Print | Product List | Glossary On
Versions: 1 2 3 4 5 6 7 8 9 10 11 12 13 14 15 16 17 18 19 20 21 22 23 24 25 26 27 28 29 30 31 32 33 34 35 36 37 38 39 40 41 42 43 44 45 46 47 48 49 50
000
ASUS41 KAKQ 291215
RWRAKQ

REGIONAL WEATHER ROUNDUP
NATIONAL WEATHER SERVICE WAKEFIELD VA
800 AM EDT MON AUG 29 2016

Note: "fair" indicates few or no clouds below 12,000 feet with no
significant weather and/or obstructions to visibility. * = Denotes
station may not report precipitation (e.g., rain,snow,etc.),
thunder or fog.

VAZ042-051-052>054-056-291300-
NORTHERN VIRGINIA

CITY           SKY/WX    TMP DP  RH WIND       PRES   REMARKS
WASH NATIONAL  MOSUNNY   76  67  73 W6        30.18R
DULLES         MOSUNNY   73  66  78 W3        30.19R
FORT BELVOIR   SUNNY     71  69  95 NW3       30.17R
QUANTICO       MOSUNNY   73  67  81 NW3       30.18R
FREDERICKSBRG* SUNNY     69  69 100 CALM      30.15S
STAFFORD*      SUNNY     67  66  95 CALM      30.20S
WARRENTON      SUNNY     69  65  85 CALM      30.18R
CULPEPER*      SUNNY     69  68  98 N3        30.19R
MANASSAS*      SUNNY     70  70 100 CALM      30.18R
LEESBURG*      SUNNY     72  70  94 NW5       30.20R
WINCHESTER     SUNNY     70  66  88 NW3       30.20S
FRONT ROYAL*   FAIR      68  64  88 CALM      30.20R
LURAY*         FAIR     N/A N/A N/A CALM      30.20R
$$

VAZ048-049-060>072-079>083-291300-
CENTRAL AND SOUTH CENTRAL VIRGINIA

CITY           SKY/WX    TMP DP  RH WIND       PRES   REMARKS
RICHMOND       PTSUNNY   70  67  90 N3        30.15R
CHESTERFIELD*  FAIR      72  55  56 NW3       30.16S
PETERSBURG*    PTSUNNY  N/A N/A N/A CALM      30.15R
HANOVER        SUNNY     69  65  86 CALM      30.17R
TAPPAHANNOCK*  SUNNY     67  67 100 CALM      30.15S
QUINTON*       FAIR      66  66  99 CALM      30.14S
CHARLOTTSVILLE SUNNY     70  66  87 CALM      30.17S
GORDONSVILLE*  NOT AVBL
ORANGE*          N/A     68  68 100 CALM      30.18R
LOUISA*        SUNNY     72  70  94 CALM      30.16S
BUMPASS*       FAIR      67  67 100 CALM      30.16S
FARMVILLE*     CLOUDY   N/A N/A N/A CALM      30.16R
CREWE*         FAIR      68  68 100 NW3       30.16R
FORT PICKETT*  NOT AVBL
CHASE CITY*    FAIR      69  67  94 N3        30.16R
CLARKSVILLE*   FAIR      70  70 100 CALM      30.16R
SOUTH HILL*    CLOUDY    68  68  99 N5        30.21R
LAWRENCEVILLE* FAIR      69  69  97 N3        30.15R
EMPORIA*       CLOUDY    70  68  94 NW7       30.15R
$$

VAZ088>098-291300-
SOUTHEAST VIRGINIA

CITY           SKY/WX    TMP DP  RH WIND       PRES   REMARKS
NORFOLK        CLOUDY    77  73  87 NE12      30.10S
VIRGINIA BEACH CLOUDY    83  74  74 N9G20     30.10R
NORFOLK NAVAL  PTSUNNY   79  73  82 NE8       30.12R
WEST POINT*    MOSUNNY   69  68  98 CALM      30.16R
SALUDA*        FAIR      70  69  98 CALM      30.13R
NEWPORT NEWS   PTSUNNY   76  73  91 N5        30.12R
LANGLEY AFB    MOSUNNY   77  72  85 E10       30.11R
FORT EUSTIS    MOSUNNY   77  71  81 NE5       30.10R
WILLIAMSBURG*  MOSUNNY   72  72 100 CALM      30.14R
HR EXEC AP*    PTSUNNY   77  72  83 NE6       30.13R
FRANKLIN*      PTSUNNY   71  69  95 CALM      30.12S
US460-WAKEFLD  MOSUNNY   71  68  90 N3        30.13R
$$

VAZ020-022-025-037-045-291300-
WEST CENTRAL AND SOUTHWEST VIRGINIA

CITY           SKY/WX    TMP DP  RH WIND       PRES   REMARKS
STAUNTON*      SUNNY     65  63  96 CALM      30.23R
WAYNESBORO*    FAIR      65  62  89 CALM      30.22S
HOT SPRINGS VA SUNNY     67  60  77 NW7       30.32R
LYNCHBURG      CLOUDY    70  66  87 CALM      30.20R
DANVILLE       MOSUNNY   69  67  93 CALM      30.18R
SOUTH BOSTON*  FAIR      69  68  95 N5        30.17R
MARTINSVILLE   PTSUNNY   67  66  94 CALM      30.22R
ROANOKE        MOSUNNY   67  64  90 CALM      30.22R
BLACKSBURG     MOSUNNY   63  62  99 CALM      30.29R FOG
DUBLIN*        SUNNY     64  64 100 CALM      30.27R
MARION*        SUNNY     62  61  96 CALM      30.30R
HILLSVILLE*    SUNNY     59  59 100 CALM      30.27R
RICHLANDS*     FAIR      70  63  78 CALM      30.27R
WISE*          SUNNY     68  57  68 CALM      30.29R
ABINGDON*      SUNNY     69  65  87 E5        30.25R
$$

MDZ021>025-VAZ099-100-291300-
SOUTHERN MARYLAND AND THE DELMARVA PENINSULA

CITY           SKY/WX    TMP DP  RH WIND       PRES   REMARKS
PATUXENT RIVER PTSUNNY   74  70  87 N10       30.16R
BAY BRIDGE APT SUNNY     75  70  83 NW5       30.16S
LEONARDTOWN    MOSUNNY   70  68  94 CALM      30.17R
DOVER          SUNNY     71  71 100 NW3       30.15R
GEORGETOWN     MOSUNNY   69  67  93 CALM      30.16R
EASTON         MOSUNNY   72  70  94 CALM      30.20R
CAMBRIDGE      MOSUNNY   68  64  88 CALM      30.15S
SALISBURY      MOSUNNY   68  66  93 NW3       30.15R
OCEAN CITY     SUNNY     72  69  90 N3        30.14R
WALLOPS ISLAND PTSUNNY   71  56  58 N5        30.14R
ACCOMACK*      MOSUNNY   70  67  89 CALM      30.13R
$$

NCZ012>017-030>032-291300-
NORTH CENTRAL AND EASTERN NORTH CAROLINA

CITY           SKY/WX    TMP DP  RH WIND       PRES   REMARKS
ROANOKE RAPIDS PTSUNNY   70  70 100 N3        30.14R
RALEIGH        CLOUDY    72  70  93 E5        30.14S
ELIZABETH CITY MOSUNNY   79  76  90 NE9       30.10R
AHOSKIE*       CLOUDY    70  69  96 N3        30.13R
EDENTON*       PTSUNNY  N/A N/A N/A N7        30.11R
CURRITUCK*       N/A     79  78  94 NE5       30.10S
KILL DEVIL HLS MOSUNNY   80  80  99 CALM      30.08R
MANTEO         MOSUNNY   79  78  97 E9        30.09R
CAPE HATTERAS  SUNNY     82  75  79 NE3       30.07R
TARBORO*       FAIR      73  71  93 N3        30.13R
GOLDSBORO      CLOUDY    74  74 100 NE6       30.10R
WASHINGTON     CLOUDY    74  73  97 N3        30.10S FOG
GREENVILLE     CLOUDY    73  73 100 N5        30.12S FOG
NEW BERN       CLOUDY    76  74  93 NE6       30.10R FOG
WILMINGTON     CLOUDY    76  74  93 NE7       30.08R
$$

VAZ048-291300-
ELSEWHERE

CITY           SKY/WX    TMP DP  RH WIND       PRES   REMARKS
HARRISBURG PA  MOSUNNY   75  69  81 NW5       30.16S
BALTIMORE      PTSUNNY   72  66  81 CALM      30.16S
ANNAPOLIS      SUNNY     76  69  79 NW5       30.16S
ANDREWS AFB    SUNNY     73  68  86 NW1       30.16S
PHILADELPHIA   MOSUNNY   75  67  76 W6        30.16R
HENDERSON NC   CLOUDY    67  66  97 N3        30.16R FOG
GREENSBORO     PTSUNNY   70  68  93 N3        30.18R
ROCKY MOUNT    CLOUDY    72  72 100 N6        30.12S
$$

VAZ100-291300-
MARINE

STATION/POSITION TIME  TEMP    WIND        PRES    WAVE   SWELL
                       AIR SEA DIR/SP/G            HT/PER HT/PER
                 (UTC) (F)     (DEG/KT/KT) (MB)    (FT/S) (FT/S)
BRANDYWINE LGT   1148   75     330/  2/  3   N/A
CAPE MAY NJ      1100   71 75   CALM  /  1 1020.0R
LEWES DE         1100   74 75     CALM     1020.2R
OCEAN-CITY-INLET 1100   74 76   70/  3/  4 1020.3R
WACHAPREAGUE VA  1100   74 80   30/  4/  7 1019.8R
THOMAS POINT MD  1200   74 83  290/  6/  6 1022.6R
GOOSES REEF MD   1100   77 82  120/  2/  2 1021.4R   0
COVE POINT MD    1100   74     320/  4/  6 1021.2R
SOLOMONS ISLAND  1100   74 84  320/  5/  5   N/A
PINEY POINT MD   1100           50/  4/  5   N/A
POTOMAC MD       1100   77 83  110/  4/  6 1019.1R   0
CAMBRIDGE MD     1100   71 84   CALM  /  1 1020.1R
LEWISETTA VA     1100   73 83  280/  3/  4 1019.8R
RAPPAHANNOCK LGT 1100           80/ 10/ 11 1020.2S
STINGRAY PT      1100   78 83   30/  6/ 10 1020.3R   1/ 2
YORK RVR RNG VA  1100   77      80/ 11/ 12 1019.0R
YORKTOWN VA      1100   77 83   90/ 10/ 11 1019.0S
JAMESTOWN VA     1100   73 84   70/  2/  4   N/A     0
DOMINION TERM VA 1100   76      30/  5/  8 1019.5R
KIPTOPEKE VA     1100      80   30/  5/  7   N/A
CHES BAY BRIDGE  1100   77 79   30/ 13/ 15 1019.0R
CAPE HENRY VA    1100   77      40/ 12/ 14   N/A
WILLOUBY STN VA  1100   76      30/ 10/ 13   N/A
CAPE HENRY BUOY  1112      80                N/A     3/14   2/14
1ST LANDING BUOY 1100   77 76   80/ 10/ 14 1019.0R   2/ 3
CAPE CHARLES BUO 1126      79                N/A     3/14   2/14
OFFSHORE WE BUOY 1121      80                N/A     4/13   2/13
64NM E OF VA BCH 1150   81 80   40/ 12/ 16 1018.6R   5/ 8   3/ 8
DUCK PIER NC     1100   79 78   80/  5/  6 1017.7F
44100 DUCK FRF   1105      80                N/A     4/13   2/13
44056 DUCK FRF   1111      78                N/A     4/14   2/14
OREGON INLET NC  1100   79 80   10/  5/  6 1018.0F
HATTERAS NC      1100   80 82   60/  5/  8 1017.6R
DIAMOND SHLS NC  1150   83 84   70/ 14/ 17 1017.7R   7/ 9   7/ 9
CAPE LOOKOUT NC  1200   80      10/  7/  8 1017.7R
$$



USA.gov is the U.S. government's official web portal to all federal, state and local government web resources and services.